11-08-2023, 00:00:07,    136,    0.2,   15.8,   0.00,   0.00, 1014.6,    0.4, -999.0
11-08-2023, 00:00:17,    136,    0.0,   15.7,   0.00,   0.00, 1014.6,    0.2, -999.0
11-08-2023, 00:00:27,    135,    0.0,   15.7,   0.00,   0.00, 1014.5,    0.3, -999.0
11-08-2023, 00:00:38,    139,    0.0,   15.8,   0.00,   0.00, 1014.6,    0.2, -999.0
11-08-2023, 00:00:47,    140,    0.0,   15.8,   0.00,   0.00, 1014.5,    0.2, -999.0
11-08-2023, 00:00:57,    139,    0.0,   15.8,   0.00,   0.00, 1014.6,    0.3, -999.0
11-08-2023, 00:01:07,    139,    0.0,   15.8,   0.00,   0.00, 1014.6,    0.3, -999.0
11-08-2023, 00:01:17,    138,    0.0,   15.8,   0.00,   0.00, 1014.5,    0.2, -999.0
11-08-2023, 00:01:27,    139,    0.0,   15.8,   0.00,   0.00, 1014.6,    0.1, -999.0
11-08-2023, 00:01:37,    140,    0.0,   15.7,   0.00,   0.00, 1014.5,    0.2, -999.0
11-08-2023, 00:01:47,    138,    0.0,   15.7,   0.00,   0.00, 1014.6,    0.1, -999.0
11-08-2023, 00:01:57,    139,    0.0,   15.8,   0.00,   0.00, 1014.6,    0.2, -999.0
11-08-2023, 00:02:07,    140,    0.0,   15.8,   0.00,   0.00, 1014.6,    0.3, -999.0
11-08-2023, 00:02:17,    140,    0.0,   15.7,   0.00,   0.00, 1014.6,    0.2, -999.0
11-08-2023, 00:02:27,    170,    0.0,   15.8,   0.00,   0.00, 1014.6,    0.5, -999.0
11-08-2023, 00:02:37,    172,    1.1,   15.8,   0.00,   0.00, 1014.7,    0.2, -999.0
11-08-2023, 00:02:47,    194,    0.2,   15.8,   0.00,   0.00, 1014.7,    0.2, -999.0
11-08-2023, 00:02:57,    194,    0.0,   15.7,   0.00,   0.00, 1014.6,    0.3, -999.0
11-08-2023, 00:03:07,    194,    0.0,   15.7,   0.00,   0.00, 1014.6,    0.3, -999.0
11-08-2023, 00:03:17,    187,    0.7,   15.8,   0.00,   0.00, 1014.8,    0.4, -999.0
11-08-2023, 00:03:27,    187,    0.0,   15.8,   0.00,   0.00, 1014.7,    0.2, -999.0
11-08-2023, 00:03:37,    170,    0.9,   15.8,   0.00,   0.00, 1014.8,    0.5, -999.0
11-08-2023, 00:03:47,    178,    0.3,   15.8,   0.00,   0.00, 1014.8,    0.3, -999.0
11-08-2023, 00:03:57,    306,    0.1,   15.8,   0.00,   0.00, 1014.7,    0.4, -999.0
11-08-2023, 00:04:07,    168,    0.7,   15.7,   0.00,   0.00, 1014.7,    0.3, -999.0
11-08-2023, 00:04:17,    216,    0.6,   15.8,   0.00,   0.00, 1014.7,    0.3, -999.0
11-08-2023, 00:04:26,    206,    2.6,   15.9,   0.00,   0.00, 1014.8,    0.4, -999.0
11-08-2023, 00:04:37,    182,    0.7,   15.8,   0.00,   0.00, 1014.8,    0.3, -999.0
11-08-2023, 00:04:47,    183,    0.0,   15.7,   0.00,   0.00, 1014.6,    0.3, -999.0
11-08-2023, 00:04:56,    185,    0.0,   15.7,   0.00,   0.00, 1014.7,    0.2, -999.0
11-08-2023, 00:05:06,    187,    0.0,   15.7,   0.00,   0.00, 1014.7,    0.2, -999.0
11-08-2023, 00:05:17,    187,    0.0,   15.7,   0.00,   0.00, 1014.6,    0.4, -999.0
11-08-2023, 00:05:27,    186,    0.0,   15.7,   0.00,   0.00, 1014.6,    0.1, -999.0
11-08-2023, 00:05:36,    187,    0.0,   15.6,   0.00,   0.00, 1014.6,    0.3, -999.0
11-08-2023, 00:05:46,    187,    0.0,   15.7,   0.00,   0.00, 1014.6,    0.3, -999.0
11-08-2023, 00:05:57,    185,    0.0,   15.7,   0.00,   0.00, 1014.6,    0.2, -999.0
11-08-2023, 00:06:06,    185,    0.0,   15.7,   0.00,   0.00, 1014.6,    0.3, -999.0
11-08-2023, 00:06:16,    185,    0.0,   15.7,   0.00,   0.00, 1014.5,    0.1, -999.0
11-08-2023, 00:06:26,    185,    0.0,   15.7,   0.00,   0.00, 1014.5,    0.2, -999.0
11-08-2023, 00:06:36,    183,    0.0,   15.7,   0.00,   0.00, 1014.6,    0.4, -999.0
11-08-2023, 00:06:46,    206,    1.1,   15.7,   0.00,   0.00, 1014.7,    0.3, -999.0
11-08-2023, 00:06:56,    156,    0.3,   15.7,   0.00,   0.00, 1014.6,    0.2, -999.0
11-08-2023, 00:07:06,    156,    0.0,   15.6,   0.00,   0.00, 1014.6,    0.2, -999.0
11-08-2023, 00:07:16,    156,    0.0,   15.7,   0.00,   0.00, 1014.5,    0.2, -999.0
11-08-2023, 00:07:26,    177,    0.0,   15.7,   0.00,   0.00, 1014.5,    0.2, -999.0
11-08-2023, 00:07:36,    178,    0.0,   15.6,   0.00,   0.00, 1014.5,    0.4, -999.0
11-08-2023, 00:07:46,    178,    0.0,   15.7,   0.00,   0.00, 1014.5,    0.3, -999.0
11-08-2023, 00:07:56,    180,    0.0,   15.7,   0.00,   0.00, 1014.6,    0.6, -999.0
11-08-2023, 00:08:06,    233,    0.2,   15.6,   0.00,   0.00, 1014.6,    0.4, -999.0
11-08-2023, 00:08:16,    223,    1.0,   15.6,   0.00,   0.00, 1014.7,    0.3, -999.0
11-08-2023, 00:08:26,    199,    0.0,   15.6,   0.00,   0.00, 1014.5,    0.3, -999.0
11-08-2023, 00:08:36,    200,    0.0,   15.6,   0.00,   0.00, 1014.6,    0.3, -999.0
11-08-2023, 00:08:46,    199,    0.0,   15.5,   0.00,   0.00, 1014.5,    0.2, -999.0
11-08-2023, 00:08:56,    199,    0.2,   15.6,   0.00,   0.00, 1014.6,    0.4, -999.0
11-08-2023, 00:09:06,    220,    0.3,   15.8,   0.00,   0.00, 1014.6,    0.2, -999.0
11-08-2023, 00:09:16,    197,    0.2,   15.7,   0.00,   0.00, 1014.6,    0.2, -999.0
11-08-2023, 00:09:26,    196,    0.0,   15.6,   0.00,   0.00, 1014.6,    0.3, -999.0
11-08-2023, 00:09:36,    203,    0.0,   15.6,   0.00,   0.00, 1014.5,    0.4, -999.0
11-08-2023, 00:09:46,    203,    0.0,   15.5,   0.00,   0.00, 1014.6,    0.2, -999.0
11-08-2023, 00:09:56,    203,    0.0,   15.6,   0.00,   0.00, 1014.5,    0.3, -999.0
11-08-2023, 00:10:06,    199,    0.0,   15.6,   0.00,   0.00, 1014.5,    0.4, -999.0
11-08-2023, 00:10:16,    198,    0.0,   15.6,   0.00,   0.00, 1014.5,    0.4, -999.0
11-08-2023, 00:10:25,    198,    0.0,   15.6,   0.00,   0.00, 1014.5,    0.2, -999.0
11-08-2023, 00:10:36,    198,    0.0,   15.7,   0.00,   0.00, 1014.5,    0.3, -999.0
11-08-2023, 00:10:46,    199,    0.0,   15.6,   0.00,   0.00, 1014.5,    0.2, -999.0
11-08-2023, 00:10:55,    199,    0.0,   15.6,   0.00,   0.00, 1014.5,    0.1, -999.0
11-08-2023, 00:11:06,    198,    0.0,   15.7,   0.00,   0.00, 1014.5,    0.6, -999.0
11-08-2023, 00:11:16,    199,    0.0,   15.7,   0.00,   0.00, 1014.5,    0.3, -999.0
11-08-2023, 00:11:25,    198,    0.0,   15.6,   0.00,   0.00, 1014.5,    0.2, -999.0
11-08-2023, 00:11:35,    162,    0.0,   15.7,   0.00,   0.00, 1014.5,    0.2, -999.0
11-08-2023, 00:11:46,    161,    0.5,   15.7,   0.00,   0.00, 1014.6,    0.4, -999.0
11-08-2023, 00:11:56,    163,    0.0,   15.8,   0.00,   0.00, 1014.5,    0.1, -999.0
11-08-2023, 00:12:05,    184,    0.1,   15.8,   0.00,   0.00, 1014.6,    0.2, -999.0
11-08-2023, 00:12:15,    185,    0.2,   15.8,   0.00,   0.00, 1014.6,    0.4, -999.0
11-08-2023, 00:12:26,    178,    0.7,   15.9,   0.00,   0.00, 1014.7,    0.4, -999.0
11-08-2023, 00:12:35,    177,    0.3,   15.8,   0.00,   0.00, 1014.6,    0.5, -999.0
11-08-2023, 00:12:45,    178,    0.0,   15.7,   0.00,   0.00, 1014.5,    0.3, -999.0
11-08-2023, 00:12:55,    178,    0.0,   15.7,   0.00,   0.00, 1014.5,    0.2, -999.0
11-08-2023, 00:13:05,    176,    0.4,   15.7,   0.00,   0.00, 1014.6,    0.5, -999.0
11-08-2023, 00:13:15,    175,    0.2,   15.7,   0.00,   0.00, 1014.5,    0.2, -999.0
11-08-2023, 00:13:25,    176,    0.0,   15.7,   0.00,   0.00, 1014.5,    0.3, -999.0
11-08-2023, 00:13:35,    176,    0.0,   15.7,   0.00,   0.00, 1014.5,    0.1, -999.0
11-08-2023, 00:13:45,    156,    0.1,   15.7,   0.00,   0.00, 1014.5,    0.4, -999.0
11-08-2023, 00:13:55,    167,    2.1,   15.7,   0.00,   0.00, 1014.6,    0.5, -999.0
11-08-2023, 00:14:05,    233,    1.4,   15.6,   0.00,   0.00, 1014.6,    0.4, -999.0
11-08-2023, 00:14:15,    232,    0.3,   15.6,   0.00,   0.00, 1014.6,    0.2, -999.0
11-08-2023, 00:14:25,    186,    1.1,   15.7,   0.00,   0.00, 1014.6,    0.5, -999.0
11-08-2023, 00:14:35,    186,    0.0,   15.6,   0.00,   0.00, 1014.5,    0.1, -999.0
11-08-2023, 00:14:45,    224,    0.6,   15.6,   0.00,   0.00, 1014.6,    0.2, -999.0
11-08-2023, 00:14:55,    184,    0.6,   15.6,   0.00,   0.00, 1014.6,    0.3, -999.0
11-08-2023, 00:15:05,    184,    0.2,   15.6,   0.00,   0.00, 1014.6,    0.0, -999.0
11-08-2023, 00:15:15,    184,    0.0,   15.6,   0.00,   0.00, 1014.5,    0.3, -999.0
11-08-2023, 00:15:25,    184,    0.0,   15.6,   0.00,   0.00, 1014.5,    0.2, -999.0
11-08-2023, 00:15:35,    184,    0.0,   15.6,   0.00,   0.00, 1014.5,    0.3, -999.0
11-08-2023, 00:15:45,    184,    0.0,   15.6,   0.00,   0.00, 1014.5,    0.2, -999.0
11-08-2023, 00:15:55,    184,    0.0,   15.5,   0.00,   0.00, 1014.5,    0.3, -999.0
11-08-2023, 00:16:05,    184,    0.0,   15.5,   0.00,   0.00, 1014.5,    0.3, -999.0
11-08-2023, 00:16:14,    184,    0.0,   15.7,   0.00,   0.00, 1014.5,    0.1, -999.0
11-08-2023, 00:16:25,    185,    0.0,   15.6,   0.00,   0.00, 1014.5,    0.3, -999.0
11-08-2023, 00:16:35,    198,    0.1,   15.6,   0.00,   0.00, 1014.5,    0.2, -999.0
11-08-2023, 00:16:45,    182,    0.0,   15.5,   0.00,   0.00, 1014.5,    0.4, -999.0
11-08-2023, 00:16:54,    139,    0.2,   15.6,   0.00,   0.00, 1014.6,    0.4, -999.0
11-08-2023, 00:17:05,    138,    0.1,   15.7,   0.00,   0.00, 1014.5,    0.2, -999.0
11-08-2023, 00:17:15,    138,    0.3,   15.7,   0.00,   0.00, 1014.5,    0.2, -999.0
11-08-2023, 00:17:24,    139,    0.0,   15.6,   0.00,   0.00, 1014.5,    0.3, -999.0
11-08-2023, 00:17:34,    138,    0.0,   15.7,   0.00,   0.00, 1014.5,    0.4, -999.0
11-08-2023, 00:17:45,    139,    0.0,   15.7,   0.00,   0.00, 1014.5,    0.2, -999.0
11-08-2023, 00:17:54,    139,    0.0,   15.7,   0.00,   0.00, 1014.4,    0.3, -999.0
11-08-2023, 00:18:04,    140,    0.0,   15.7,   0.00,   0.00, 1014.5,    0.4, -999.0
11-08-2023, 00:18:14,    172,    0.0,   15.7,   0.00,   0.00, 1014.5,    0.2, -999.0
11-08-2023, 00:18:25,    173,    0.0,   15.7,   0.00,   0.00, 1014.5,    0.1, -999.0
11-08-2023, 00:18:34,    172,    0.0,   15.7,   0.00,   0.00, 1014.5,    0.3, -999.0
11-08-2023, 00:18:44,    172,    0.0,   15.6,   0.00,   0.00, 1014.5,    0.3, -999.0
11-08-2023, 00:18:54,    172,    0.0,   15.7,   0.00,   0.00, 1014.5,    0.2, -999.0
11-08-2023, 00:19:04,    172,    0.0,   15.6,   0.00,   0.00, 1014.5,    0.3, -999.0
11-08-2023, 00:19:14,    173,    0.0,   15.6,   0.00,   0.00, 1014.5,    0.1, -999.0
11-08-2023, 00:19:24,    172,    0.1,   15.7,   0.00,   0.00, 1014.6,    0.1, -999.0
11-08-2023, 00:19:34,    166,    0.9,   15.7,   0.00,   0.00, 1014.6,    0.4, -999.0
11-08-2023, 00:19:44,    166,    0.1,   15.6,   0.00,   0.00, 1014.5,    0.4, -999.0
11-08-2023, 00:19:54,    167,    0.4,   15.7,   0.00,   0.00, 1014.5,    0.4, -999.0
11-08-2023, 00:20:04,    166,    0.0,   15.5,   0.00,   0.00, 1014.5,    0.4, -999.0
11-08-2023, 00:20:14,    166,    0.0,   15.7,   0.00,   0.00, 1014.5,    0.2, -999.0
11-08-2023, 00:20:24,    217,    0.1,   15.6,   0.00,   0.00, 1014.6,    0.3, -999.0
11-08-2023, 00:20:34,    193,    1.0,   15.7,   0.00,   0.00, 1014.6,    0.3, -999.0
11-08-2023, 00:20:44,    227,    0.5,   15.7,   0.00,   0.00, 1014.5,    0.4, -999.0
11-08-2023, 00:20:54,    227,    0.0,   15.6,   0.00,   0.00, 1014.4,    0.1, -999.0
11-08-2023, 00:21:04,    190,    0.0,   15.6,   0.00,   0.00, 1014.5,    0.4, -999.0
11-08-2023, 00:21:14,    172,    1.3,   15.6,   0.00,   0.00, 1014.6,    0.4, -999.0
11-08-2023, 00:21:24,    172,    0.3,   15.7,   0.00,   0.00, 1014.5,    0.2, -999.0
11-08-2023, 00:21:34,    171,    0.6,   15.6,   0.00,   0.00, 1014.6,    0.2, -999.0
11-08-2023, 00:21:44,    216,    0.0,   15.6,   0.00,   0.00, 1014.5,    0.4, -999.0
11-08-2023, 00:21:54,    153,    0.2,   15.6,   0.00,   0.00, 1014.4,    0.2, -999.0
11-08-2023, 00:22:04,    156,    1.6,   15.7,   0.00,   0.00, 1014.5,    0.3, -999.0
11-08-2023, 00:22:14,    195,    0.5,   15.7,   0.00,   0.00, 1014.5,    0.2, -999.0
11-08-2023, 00:22:24,    195,    0.0,   15.7,   0.00,   0.00, 1014.5,    0.3, -999.0
11-08-2023, 00:22:34,    195,    0.0,   15.7,   0.00,   0.00, 1014.5,    0.3, -999.0
11-08-2023, 00:22:44,    195,    0.0,   15.7,   0.00,   0.00, 1014.4,    0.2, -999.0
11-08-2023, 00:22:53,    194,    0.0,   15.6,   0.00,   0.00, 1014.4,    0.2, -999.0
11-08-2023, 00:23:04,    137,    0.2,   15.6,   0.00,   0.00, 1014.5,    0.4, -999.0
11-08-2023, 00:23:14,    137,    0.0,   15.7,   0.00,   0.00, 1014.4,    0.3, -999.0
11-08-2023, 00:23:23,    137,    0.0,   15.6,   0.00,   0.00, 1014.5,    0.3, -999.0
11-08-2023, 00:23:34,    141,    0.9,   15.7,   0.00,   0.00, 1014.5,    0.3, -999.0
11-08-2023, 00:23:44,    162,    0.4,   15.7,   0.00,   0.00, 1014.5,    0.2, -999.0
11-08-2023, 00:23:53,    161,    0.0,   15.7,   0.00,   0.00, 1014.4,    0.4, -999.0
11-08-2023, 00:24:03,    159,    0.1,   15.6,   0.00,   0.00, 1014.3,    0.2, -999.0
11-08-2023, 00:24:14,    159,    0.2,   15.7,   0.00,   0.00, 1014.4,    0.2, -999.0
11-08-2023, 00:24:23,    197,    0.0,   15.6,   0.00,   0.00, 1014.4,    0.4, -999.0
11-08-2023, 00:24:33,    209,    0.4,   15.7,   0.00,   0.00, 1014.4,    0.3, -999.0
11-08-2023, 00:24:43,    209,    0.0,   15.7,   0.00,   0.00, 1014.4,    0.2, -999.0
11-08-2023, 00:24:54,    208,    0.0,   15.6,   0.00,   0.00, 1014.3,    0.4, -999.0
11-08-2023, 00:25:03,    208,    0.0,   15.7,   0.00,   0.00, 1014.3,    0.3, -999.0
11-08-2023, 00:25:13,    158,    0.1,   15.7,   0.00,   0.00, 1014.4,    0.3, -999.0
11-08-2023, 00:25:23,    160,    0.0,   15.6,   0.00,   0.00, 1014.3,    0.4, -999.0
11-08-2023, 00:25:33,    159,    0.4,   15.6,   0.00,   0.00, 1014.4,    0.4, -999.0
11-08-2023, 00:25:43,    160,    0.7,   15.8,   0.00,   0.00, 1014.5,    0.1, -999.0
11-08-2023, 00:25:53,    153,    1.0,   15.7,   0.00,   0.00, 1014.4,    0.2, -999.0
11-08-2023, 00:26:03,    151,    1.1,   15.7,   0.00,   0.00, 1014.5,    0.2, -999.0
11-08-2023, 00:26:13,    151,    0.0,   15.6,   0.00,   0.00, 1014.3,    0.2, -999.0
11-08-2023, 00:26:23,    154,    0.0,   15.6,   0.00,   0.00, 1014.4,    0.3, -999.0
11-08-2023, 00:26:33,    153,    0.0,   15.6,   0.00,   0.00, 1014.3,    0.3, -999.0
11-08-2023, 00:26:43,    205,    0.0,   15.6,   0.00,   0.00, 1014.4,    0.4, -999.0
11-08-2023, 00:26:53,    182,    0.8,   15.6,   0.00,   0.00, 1014.5,    0.4, -999.0
11-08-2023, 00:27:03,    206,    0.2,   15.7,   0.00,   0.00, 1014.4,    0.4, -999.0
11-08-2023, 00:27:13,    204,    0.8,   15.7,   0.00,   0.00, 1014.5,    0.3, -999.0
11-08-2023, 00:27:23,    204,    0.0,   15.6,   0.00,   0.00, 1014.3,    0.2, -999.0
11-08-2023, 00:27:33,    204,    0.0,   15.6,   0.00,   0.00, 1014.3,    0.3, -999.0
11-08-2023, 00:27:43,    204,    0.0,   15.6,   0.00,   0.00, 1014.3,    0.3, -999.0
11-08-2023, 00:27:53,    204,    0.0,   15.6,   0.00,   0.00, 1014.3,    0.2, -999.0
11-08-2023, 00:28:03,    204,    0.0,   15.6,   0.00,   0.00, 1014.3,    0.1, -999.0
11-08-2023, 00:28:13,    194,    0.0,   15.7,   0.00,   0.00, 1014.4,    0.4, -999.0
11-08-2023, 00:28:23,    195,    0.0,   15.7,   0.00,   0.00, 1014.3,    0.4, -999.0
11-08-2023, 00:28:33,    194,    0.0,   15.7,   0.00,   0.00, 1014.4,    0.4, -999.0
11-08-2023, 00:28:43,    195,    0.0,   15.7,   0.00,   0.00, 1014.4,    0.2, -999.0
11-08-2023, 00:28:53,    194,    0.0,   15.7,   0.00,   0.00, 1014.4,    0.2, -999.0
11-08-2023, 00:29:03,    192,    0.0,   15.7,   0.00,   0.00, 1014.4,    0.3, -999.0
11-08-2023, 00:29:13,    192,    0.0,   15.7,   0.00,   0.00, 1014.4,    0.4, -999.0
11-08-2023, 00:29:22,    192,    0.0,   15.6,   0.00,   0.00, 1014.3,    0.4, -999.0
11-08-2023, 00:29:33,    192,    0.0,   15.7,   0.00,   0.00, 1014.4,    0.4, -999.0
11-08-2023, 00:29:43,    192,    0.0,   15.6,   0.00,   0.00, 1014.3,    0.2, -999.0
11-08-2023, 00:29:52,    192,    0.0,   15.7,   0.00,   0.00, 1014.4,    0.2, -999.0
11-08-2023, 00:30:02,    191,    0.0,   15.7,   0.00,   0.00, 1014.4,    0.3, -999.0
11-08-2023, 00:30:13,    190,    0.0,   15.7,   0.00,   0.00, 1014.4,    0.3, -999.0
11-08-2023, 00:30:22,    192,    0.0,   15.7,   0.00,   0.00, 1014.3,    0.3, -999.0
11-08-2023, 00:30:32,    192,    0.0,   15.7,   0.00,   0.00, 1014.3,    0.3, -999.0
11-08-2023, 00:30:42,    191,    0.0,   15.6,   0.00,   0.00, 1014.3,    0.3, -999.0
11-08-2023, 00:30:53,    191,    0.0,   15.7,   0.00,   0.00, 1014.3,    0.4, -999.0
11-08-2023, 00:31:02,    192,    0.0,   15.7,   0.00,   0.00, 1014.4,    0.3, -999.0
11-08-2023, 00:31:12,    191,    0.0,   15.7,   0.00,   0.00, 1014.4,    0.3, -999.0
11-08-2023, 00:31:22,    191,    0.1,   15.8,   0.00,   0.00, 1014.4,    0.2, -999.0
11-08-2023, 00:31:32,    191,    0.0,   15.7,   0.00,   0.00, 1014.3,    0.3, -999.0
11-08-2023, 00:31:42,    190,    0.0,   15.7,   0.00,   0.00, 1014.3,    0.7, -999.0
11-08-2023, 00:31:52,    191,    0.0,   15.7,   0.00,   0.00, 1014.3,    0.1, -999.0
11-08-2023, 00:32:02,    191,    0.0,   15.7,   0.00,   0.00, 1014.3,    0.3, -999.0
11-08-2023, 00:32:12,    191,    0.0,   15.7,   0.00,   0.00, 1014.3,    0.4, -999.0
11-08-2023, 00:32:22,    191,    0.0,   15.6,   0.00,   0.00, 1014.3,    0.4, -999.0
11-08-2023, 00:32:32,    191,    0.0,   15.7,   0.00,   0.00, 1014.3,    0.6, -999.0
11-08-2023, 00:32:42,    190,    0.0,   15.7,   0.00,   0.00, 1014.3,    0.3, -999.0
11-08-2023, 00:32:52,    191,    0.0,   15.7,   0.00,   0.00, 1014.3,    0.4, -999.0
11-08-2023, 00:33:02,    191,    0.0,   15.7,   0.00,   0.00, 1014.3,    0.1, -999.0
11-08-2023, 00:33:12,    191,    0.0,   15.7,   0.00,   0.00, 1014.3,    0.0, -999.0
11-08-2023, 00:33:22,    190,    0.0,   15.7,   0.00,   0.00, 1014.3,    0.5, -999.0
11-08-2023, 00:33:32,    190,    0.0,   15.7,   0.00,   0.00, 1014.3,    0.0, -999.0
11-08-2023, 00:33:42,    191,    0.0,   15.7,   0.00,   0.00, 1014.3,    0.5, -999.0
11-08-2023, 00:33:52,    191,    0.0,   15.8,   0.00,   0.00, 1014.3,    0.2, -999.0
11-08-2023, 00:34:02,    191,    0.0,   15.8,   0.00,   0.00, 1014.3,    0.2, -999.0
11-08-2023, 00:34:12,    168,    0.1,   15.8,   0.00,   0.00, 1014.4,    0.1, -999.0
11-08-2023, 00:34:22,    167,    0.0,   15.7,   0.00,   0.00, 1014.3,    0.2, -999.0
11-08-2023, 00:34:32,    190,    0.6,   15.8,   0.00,   0.00, 1014.4,    0.5, -999.0
11-08-2023, 00:34:42,    190,    0.0,   15.9,   0.00,   0.00, 1014.4,    0.4, -999.0
11-08-2023, 00:34:52,    190,    0.0,   15.8,   0.00,   0.00, 1014.3,    0.4, -999.0
11-08-2023, 00:35:02,    190,    0.0,   15.8,   0.00,   0.00, 1014.3,    0.3, -999.0
11-08-2023, 00:35:12,    190,    0.0,   15.8,   0.00,   0.00, 1014.4,    0.4, -999.0
11-08-2023, 00:35:22,    190,    0.0,   15.8,   0.00,   0.00, 1014.3,    0.4, -999.0
11-08-2023, 00:35:32,    185,    0.0,   15.8,   0.00,   0.00, 1014.3,    0.2, -999.0
11-08-2023, 00:35:42,    177,    0.1,   15.7,   0.00,   0.00, 1014.4,    0.1, -999.0
11-08-2023, 00:35:52,    177,    0.0,   15.8,   0.00,   0.00, 1014.3,    0.1, -999.0
11-08-2023, 00:36:01,    177,    0.0,   15.8,   0.00,   0.00, 1014.3,    0.5, -999.0
11-08-2023, 00:36:12,    176,    0.0,   15.8,   0.00,   0.00, 1014.3,    0.3, -999.0
11-08-2023, 00:36:22,    177,    0.0,   15.8,   0.00,   0.00, 1014.3,    0.3, -999.0
11-08-2023, 00:36:31,    176,    0.0,   15.8,   0.00,   0.00, 1014.3,    0.2, -999.0
11-08-2023, 00:36:41,    177,    0.0,   15.9,   0.00,   0.00, 1014.3,    0.2, -999.0
11-08-2023, 00:36:52,    177,    0.0,   15.9,   0.00,   0.00, 1014.3,    0.3, -999.0
11-08-2023, 00:37:01,    178,    0.0,   15.7,   0.00,   0.00, 1014.3,    0.4, -999.0
11-08-2023, 00:37:11,    178,    0.0,   15.8,   0.00,   0.00, 1014.3,    0.4, -999.0
11-08-2023, 00:37:21,    178,    0.0,   15.8,   0.00,   0.00, 1014.3,    0.3, -999.0
11-08-2023, 00:37:32,    178,    0.0,   15.8,   0.00,   0.00, 1014.3,    0.2, -999.0
11-08-2023, 00:37:42,    178,    0.0,   15.8,   0.00,   0.00, 1014.3,    0.5, -999.0
11-08-2023, 00:37:51,    177,    0.0,   15.8,   0.00,   0.00, 1014.3,    0.3, -999.0
11-08-2023, 00:38:01,    179,    0.2,   15.9,   0.00,   0.00, 1014.3,    0.2, -999.0
11-08-2023, 00:38:11,    134,    0.8,   15.9,   0.00,   0.00, 1014.5,    0.3, -999.0
11-08-2023, 00:38:21,    153,    0.0,   15.8,   0.00,   0.00, 1014.3,    0.2, -999.0
11-08-2023, 00:38:31,    154,    0.0,   15.8,   0.00,   0.00, 1014.3,    0.2, -999.0
11-08-2023, 00:38:41,    155,    0.0,   15.8,   0.00,   0.00, 1014.3,    0.1, -999.0
11-08-2023, 00:38:51,    229,    0.4,   15.8,   0.00,   0.00, 1014.4,    0.4, -999.0
11-08-2023, 00:39:01,    229,    0.0,   15.8,   0.00,   0.00, 1014.3,    0.5, -999.0
11-08-2023, 00:39:11,    229,    0.0,   15.8,   0.00,   0.00, 1014.3,    0.3, -999.0
11-08-2023, 00:39:21,    229,    0.0,   15.8,   0.00,   0.00, 1014.3,    0.2, -999.0
11-08-2023, 00:39:31,    223,    0.0,   15.8,   0.00,   0.00, 1014.3,    0.2, -999.0
11-08-2023, 00:39:41,    222,    0.0,   15.8,   0.00,   0.00, 1014.3,    0.2, -999.0
11-08-2023, 00:39:51,    222,    0.0,   15.8,   0.00,   0.00, 1014.3,    0.3, -999.0
11-08-2023, 00:40:01,    223,    0.0,   15.8,   0.00,   0.00, 1014.3,    0.3, -999.0
11-08-2023, 00:40:11,    220,    0.0,   15.8,   0.00,   0.00, 1014.3,    0.3, -999.0
11-08-2023, 00:40:21,    222,    0.0,   15.8,   0.00,   0.00, 1014.3,    0.3, -999.0
11-08-2023, 00:40:31,    223,    0.0,   15.8,   0.00,   0.00, 1014.3,    0.2, -999.0
11-08-2023, 00:40:41,    222,    0.0,   15.8,   0.00,   0.00, 1014.3,    0.2, -999.0
11-08-2023, 00:40:51,    222,    0.0,   15.8,   0.00,   0.00, 1014.3,    0.2, -999.0
11-08-2023, 00:41:01,    222,    0.0,   15.8,   0.00,   0.00, 1014.3,    0.2, -999.0
11-08-2023, 00:41:11,    222,    0.0,   15.8,   0.00,   0.00, 1014.3,    0.2, -999.0
11-08-2023, 00:41:21,    201,    0.0,   15.8,   0.00,   0.00, 1014.4,    0.1, -999.0
11-08-2023, 00:41:30,    118,    0.3,   15.8,   0.00,   0.00, 1014.4,    0.2, -999.0
11-08-2023, 00:41:41,    127,    0.0,   15.7,   0.00,   0.00, 1014.3,    0.1, -999.0
11-08-2023, 00:41:51,    127,    0.0,   15.8,   0.00,   0.00, 1014.3,    0.3, -999.0
11-08-2023, 00:42:00,    127,    0.0,   15.8,   0.00,   0.00, 1014.3,    0.2, -999.0
11-08-2023, 00:42:10,    127,    0.0,   15.7,   0.00,   0.00, 1014.3,    0.2, -999.0
11-08-2023, 00:42:21,    127,    0.0,   15.6,   0.00,   0.00, 1014.3,    0.4, -999.0
11-08-2023, 00:42:31,    127,    0.0,   15.8,   0.00,   0.00, 1014.3,    0.3, -999.0
11-08-2023, 00:42:40,    126,    0.0,   15.8,   0.00,   0.00, 1014.3,    0.2, -999.0
11-08-2023, 00:42:50,    127,    0.0,   15.7,   0.00,   0.00, 1014.3,    0.3, -999.0
11-08-2023, 00:43:01,    127,    0.0,   15.7,   0.00,   0.00, 1014.3,    0.3, -999.0
11-08-2023, 00:43:10,    127,    0.0,   15.7,   0.00,   0.00, 1014.3,    0.2, -999.0
11-08-2023, 00:43:20,    127,    0.0,   15.8,   0.00,   0.00, 1014.3,    0.3, -999.0
11-08-2023, 00:43:30,    127,    0.0,   15.8,   0.00,   0.00, 1014.3,    0.3, -999.0
11-08-2023, 00:43:40,    127,    0.0,   15.8,   0.00,   0.00, 1014.3,    0.3, -999.0
11-08-2023, 00:43:50,    133,    0.0,   15.8,   0.00,   0.00, 1014.3,    0.3, -999.0
11-08-2023, 00:44:00,    133,    0.0,   15.8,   0.00,   0.00, 1014.4,    0.2, -999.0
11-08-2023, 00:44:10,    198,    0.0,   15.8,   0.00,   0.00, 1014.3,    0.2, -999.0
11-08-2023, 00:44:20,    209,    0.0,   15.8,   0.00,   0.00, 1014.3,    0.4, -999.0
11-08-2023, 00:44:30,    216,    0.0,   15.8,   0.00,   0.00, 1014.4,    0.3, -999.0
11-08-2023, 00:44:40,    217,    0.0,   15.8,   0.00,   0.00, 1014.3,    0.5, -999.0
11-08-2023, 00:44:50,    217,    0.0,   15.7,   0.00,   0.00, 1014.3,    0.3, -999.0
11-08-2023, 00:45:00,    213,    0.0,   15.8,   0.00,   0.00, 1014.4,    0.3, -999.0
11-08-2023, 00:45:10,    213,    0.0,   15.8,   0.00,   0.00, 1014.4,    0.3, -999.0
11-08-2023, 00:45:20,    213,    0.0,   15.8,   0.00,   0.00, 1014.4,    0.2, -999.0
11-08-2023, 00:45:30,    214,    0.0,   15.8,   0.00,   0.00, 1014.4,    0.3, -999.0
11-08-2023, 00:45:40,    213,    0.0,   15.8,   0.00,   0.00, 1014.4,    0.2, -999.0
11-08-2023, 00:45:50,    213,    0.0,   15.8,   0.00,   0.00, 1014.3,    0.2, -999.0
11-08-2023, 00:46:00,    213,    0.0,   15.8,   0.00,   0.00, 1014.4,    0.3, -999.0
11-08-2023, 00:46:10,    213,    0.0,   15.8,   0.00,   0.00, 1014.4,    0.5, -999.0
11-08-2023, 00:46:20,    213,    0.0,   15.8,   0.00,   0.00, 1014.3,    0.1, -999.0
11-08-2023, 00:46:30,    213,    0.4,   15.8,   0.00,   0.00, 1014.4,    0.3, -999.0
11-08-2023, 00:46:40,    235,    1.1,   15.8,   0.00,   0.00, 1014.5,    0.3, -999.0
11-08-2023, 00:46:50,    231,    1.3,   15.8,   0.00,   0.00, 1014.5,    0.3, -999.0